Marion, SC

8:14 AM EST on February 14, 2016 (GMT -0500)
Marion County

Weather History for KMAO - November, 2012

Change the Weather History Date:

Sunday, November 18, 2012

  Actual Average (KFLO) Record (KFLO)
Temperature  
Mean Temperature 50 °F 55 °F  
Max Temperature 53 °F 67 °F 83 °F (1957)
Min Temperature 48 °F 43 °F 23 °F (2014)
Degree Days  
Heating Degree Days 14 11  
Month to date heating degree days 154  
Since 1 July heating degree days 271  
Cooling Degree Days 0 0  
Month to date cooling degree days 16  
Year to date cooling degree days 2058  
Moisture  
Dew Point 48 °F    
Average Humidity 89    
Maximum Humidity 100    
Minimum Humidity 71    
Precipitation  
Precipitation 0.20 in 0.09 in 1.07 in (1974)
Month to date precipitation 1.57  
Year to date precipitation 38.80  
Sea Level Pressure  
Sea Level Pressure 30.29 in    
Wind  
Wind Speed 11 mph (North)    
Max Wind Speed 17 mph    
Max Gust Speed 25 mph    
Visibility 9 miles    
Events Rain    
T = Trace of Precipitation, MM = Missing Value Source: NWS Daily Summary

Daily Weather History Graph

Daily Weather History Graph

Search for Another Location

Airport or City:

Trip Planner

Search our weather history database for the weather conditions in past years. The results will help you decide how hot, cold, wet, or windy it might be!

Date:

Astronomy

Nov. 18, 2012 Rise Set
Actual Time 6:53 AM EST 5:11 PM EST
Civil Twilight 6:26 AM EST 5:38 PM EST
Nautical Twilight 5:56 AM EST 6:08 PM EST
Astronomical Twilight 5:26 AM EST 6:38 PM EST
Moon 11:21 AM EST (11/18) 10:25 PM EST (11/18)
Length of Visible Light 11h 11m
Length of Day
10h 17m
Waxing Crescent, 30% of the Moon is Illuminated
Nov 18
Waxing Crescent
Nov 20
First Quarter
Nov 28
Full
Dec 6
Last Quarter
Dec 13
New

Hourly Weather History & Observations

Time (EST) Temp. Dew Point Humidity Pressure Visibility Wind Dir Wind Speed Gust Speed Precip Events Conditions
12:15 AM 50.0 °F 42.8 °F 76% 30.37 in 10.0 mi North 9.2 mph 20.7 mph N/A   Overcast
12:35 AM 50.0 °F 42.8 °F 76% 30.36 in 10.0 mi NNE 11.5 mph 17.3 mph N/A   Overcast
12:55 AM 50.0 °F 42.8 °F 76% 30.36 in 10.0 mi North 12.7 mph 18.4 mph N/A   Overcast
1:15 AM 50.0 °F 42.8 °F 76% 30.35 in 10.0 mi NNE 9.2 mph - N/A   Overcast
1:35 AM 50.0 °F 42.8 °F 76% 30.34 in 10.0 mi North 8.1 mph 17.3 mph N/A   Overcast
1:55 AM 50.0 °F 42.8 °F 76% 30.34 in 10.0 mi North 10.4 mph 16.1 mph N/A   Overcast
2:15 AM 50.0 °F 41.0 °F 71% 30.33 in 10.0 mi North 11.5 mph 21.9 mph N/A   Overcast
2:35 AM 48.2 °F 42.8 °F 82% 30.32 in 10.0 mi North 10.4 mph 19.6 mph N/A   Overcast
2:55 AM 48.2 °F 42.8 °F 82% 30.33 in 10.0 mi North 12.7 mph 17.3 mph N/A   Scattered Clouds
3:15 AM 48.2 °F 42.8 °F 82% 30.33 in 10.0 mi NNE 10.4 mph 17.3 mph N/A   Scattered Clouds
3:55 AM 48.2 °F 42.8 °F 82% 30.32 in 10.0 mi North 11.5 mph - N/A   Scattered Clouds
4:15 AM 48.2 °F 42.8 °F 82% 30.32 in 10.0 mi North 8.1 mph - N/A   Scattered Clouds
4:35 AM 48.2 °F 42.8 °F 82% 30.33 in 10.0 mi North 8.1 mph - N/A   Mostly Cloudy
4:55 AM 48.2 °F 42.8 °F 82% 30.33 in 10.0 mi North 10.4 mph 16.1 mph N/A   Overcast
5:15 AM 48.2 °F 42.8 °F 82% 30.32 in 10.0 mi North 9.2 mph 17.3 mph N/A   Overcast
5:35 AM 48.2 °F 42.8 °F 82% 30.32 in 10.0 mi North 10.4 mph - N/A   Overcast
5:55 AM 48.2 °F 42.8 °F 82% 30.33 in 10.0 mi North 8.1 mph 19.6 mph N/A   Overcast
6:15 AM 50.0 °F 44.6 °F 82% 30.33 in 10.0 mi North 10.4 mph 18.4 mph N/A   Overcast
6:35 AM 50.0 °F 44.6 °F 82% 30.33 in 10.0 mi North 12.7 mph 16.1 mph N/A   Overcast
6:55 AM 50.0 °F 44.6 °F 82% 30.34 in 10.0 mi North 13.8 mph - N/A   Overcast
7:15 AM 50.0 °F 44.6 °F 82% 30.34 in 10.0 mi North 12.7 mph 21.9 mph N/A   Overcast
7:35 AM 50.0 °F 44.6 °F 82% 30.34 in 10.0 mi North 13.8 mph 20.7 mph N/A   Overcast
7:55 AM 50.0 °F 44.6 °F 82% 30.34 in 10.0 mi North 12.7 mph 18.4 mph N/A   Overcast
8:15 AM 50.0 °F 46.4 °F 87% 30.33 in 10.0 mi North 12.7 mph 19.6 mph N/A   Overcast
8:35 AM 50.0 °F 44.6 °F 82% 30.33 in 10.0 mi North 8.1 mph - N/A   Overcast
8:55 AM 51.8 °F 46.4 °F 82% 30.33 in 10.0 mi North 10.4 mph 19.6 mph N/A   Overcast
9:15 AM 51.8 °F 46.4 °F 82% 30.33 in 10.0 mi North 10.4 mph 18.4 mph N/A   Overcast
9:35 AM 51.8 °F 46.4 °F 82% 30.34 in 10.0 mi North 15.0 mph 23.0 mph N/A   Overcast
9:55 AM 51.8 °F 46.4 °F 82% 30.34 in 10.0 mi North 16.1 mph 20.7 mph N/A   Overcast
10:15 AM 51.8 °F 46.4 °F 82% 30.33 in 10.0 mi North 16.1 mph 20.7 mph N/A   Overcast
10:35 AM 51.8 °F 46.4 °F 82% 30.33 in 7.0 mi NNE 15.0 mph 21.9 mph N/A Rain Light Rain
10:55 AM 51.8 °F 48.2 °F 88% 30.33 in 4.0 mi North 15.0 mph 24.2 mph N/A Rain Light Rain
11:15 AM 50.0 °F 48.2 °F 94% 30.33 in 5.0 mi North 10.4 mph 23.0 mph 0.01 in Rain Rain
11:35 AM 50.0 °F 50.0 °F 100% 30.32 in 5.0 mi North 12.7 mph 17.3 mph 0.04 in Rain Rain
11:55 AM 50.0 °F 50.0 °F 100% 30.31 in 5.0 mi North 10.4 mph 23.0 mph 0.05 in Rain Light Rain
12:15 PM 50.0 °F 50.0 °F 100% 30.30 in 5.0 mi North 11.5 mph 19.6 mph 0.02 in Rain Rain
12:35 PM 50.0 °F 50.0 °F 100% 30.28 in 4.0 mi North 12.7 mph 20.7 mph 0.06 in Rain Rain
12:55 PM 50.0 °F 50.0 °F 100% 30.27 in 5.0 mi North 15.0 mph 23.0 mph 0.07 in Rain Light Rain
1:15 PM 51.8 °F 50.0 °F 94% 30.26 in 7.0 mi North 11.5 mph 20.7 mph N/A Rain Rain
1:35 PM 51.8 °F 50.0 °F 94% 30.26 in 7.0 mi North 15.0 mph 19.6 mph N/A Rain Light Rain
1:55 PM 51.8 °F 51.8 °F 100% 30.25 in 7.0 mi North 15.0 mph 21.9 mph 0.01 in Rain Light Rain
2:15 PM 51.8 °F 51.8 °F 100% 30.25 in 7.0 mi North 10.4 mph 16.1 mph 0.01 in Rain Light Rain
2:55 PM 51.8 °F 51.8 °F 100% 30.24 in 7.0 mi North 11.5 mph 19.6 mph 0.02 in Rain Light Rain
3:15 PM 51.8 °F 51.8 °F 100% 30.24 in 7.0 mi North 9.2 mph 16.1 mph 0.01 in Rain Light Rain
3:35 PM 51.8 °F 51.8 °F 100% 30.25 in 7.0 mi North 9.2 mph 17.3 mph 0.01 in Rain Light Rain
3:55 PM 51.8 °F 51.8 °F 100% 30.24 in 7.0 mi North 12.7 mph 18.4 mph 0.03 in Rain Rain
4:15 PM 51.8 °F 51.8 °F 100% 30.24 in 10.0 mi North 12.7 mph 21.9 mph N/A Rain Light Rain
4:35 PM 51.8 °F 51.8 °F 100% 30.24 in 10.0 mi North 13.8 mph 23.0 mph 0.01 in   Drizzle
4:55 PM 51.8 °F 51.8 °F 100% 30.24 in 10.0 mi North 15.0 mph 19.6 mph 0.01 in   Drizzle
5:15 PM 51.8 °F 51.8 °F 100% 30.24 in 10.0 mi North 11.5 mph 18.4 mph 0.01 in Rain Light Rain
5:35 PM 51.8 °F 51.8 °F 100% 30.24 in 10.0 mi North 13.8 mph 23.0 mph 0.01 in   Overcast
5:55 PM 51.8 °F 51.8 °F 100% 30.25 in 10.0 mi North 17.3 mph 21.9 mph 0.01 in   Drizzle
6:15 PM 51.8 °F 51.8 °F 100% 30.25 in 10.0 mi North 15.0 mph 23.0 mph N/A   Overcast
6:35 PM 51.8 °F 51.8 °F 100% 30.25 in 10.0 mi North 11.5 mph 21.9 mph N/A   Overcast
6:55 PM 51.8 °F 51.8 °F 100% 30.26 in 10.0 mi North 13.8 mph 21.9 mph N/A   Overcast
7:15 PM 53.6 °F 51.8 °F 94% 30.26 in 10.0 mi North 11.5 mph 19.6 mph N/A   Overcast
7:55 PM 53.6 °F 50.0 °F 88% 30.26 in 10.0 mi North 15.0 mph 23.0 mph N/A   Overcast
8:15 PM 53.6 °F 50.0 °F 88% 30.26 in 10.0 mi North 12.7 mph 20.7 mph N/A   Overcast
8:35 PM 53.6 °F 50.0 °F 88% 30.25 in 10.0 mi North 13.8 mph 23.0 mph N/A   Overcast
8:55 PM 53.6 °F 50.0 °F 88% 30.25 in 10.0 mi North 15.0 mph 25.3 mph N/A   Overcast
9:15 PM 53.6 °F 50.0 °F 88% 30.25 in 10.0 mi North 15.0 mph 24.2 mph N/A   Overcast
9:35 PM 53.6 °F 50.0 °F 88% 30.25 in 10.0 mi NNE 11.5 mph 21.9 mph N/A   Overcast
9:55 PM 53.6 °F 50.0 °F 88% 30.25 in 10.0 mi North 12.7 mph 21.9 mph N/A   Overcast
10:15 PM 53.6 °F 50.0 °F 88% 30.25 in 10.0 mi NNE 12.7 mph 19.6 mph N/A   Overcast
10:35 PM 53.6 °F 50.0 °F 88% 30.24 in 10.0 mi North 9.2 mph 19.6 mph N/A   Overcast
10:55 PM 53.6 °F 50.0 °F 88% 30.24 in 10.0 mi North 10.4 mph 19.6 mph N/A   Overcast
11:15 PM 53.6 °F 50.0 °F 88% 30.24 in 10.0 mi North 9.2 mph 18.4 mph N/A   Overcast
11:35 PM 53.6 °F 50.0 °F 88% 30.24 in 10.0 mi North 12.7 mph 16.1 mph N/A   Overcast
11:55 PM 53.6 °F 50.0 °F 88% 30.23 in 10.0 mi North 11.5 mph 20.7 mph N/A   Overcast